Time,TemperatureF,DewpointF,PressureIn,WindDirection,WindDirectionDegrees,WindSpeedMPH,WindSpeedGustMPH,Humidity,HourlyPrecipIn,Conditions,Clouds,dailyrainin,SoftwareType,DateUTC
2013-06-02 00:01:00,56.5,48.0,29.66,NNW,338,0.0,0.0,73,0.00,,,0.00,WUHU216HW,2013-06-02 07:01:00,
2013-06-02 00:06:00,56.3,47.8,29.66,NNW,338,0.0,0.0,73,0.00,,,0.00,WUHU216HW,2013-06-02 07:06:00,
2013-06-02 00:11:00,56.2,47.6,29.66,NNW,338,0.0,0.0,73,0.00,,,0.00,WUHU216HW,2013-06-02 07:11:00,
2013-06-02 00:16:00,56.0,47.8,29.66,NNW,338,0.0,0.0,74,0.00,,,0.00,WUHU216HW,2013-06-02 07:16:00,
2013-06-02 00:21:00,55.8,47.6,29.66,NNW,338,0.0,0.0,74,0.00,,,0.00,WUHU216HW,2013-06-02 07:21:00,
2013-06-02 00:26:00,55.8,47.6,29.66,NNW,338,0.0,0.0,74,0.00,,,0.00,WUHU216HW,2013-06-02 07:26:00,
2013-06-02 00:31:00,55.6,47.8,29.66,NNW,338,0.0,0.0,75,0.00,,,0.00,WUHU216HW,2013-06-02 07:31:00,
2013-06-02 00:36:00,55.6,47.8,29.66,NNW,338,0.0,0.0,75,0.00,,,0.00,WUHU216HW,2013-06-02 07:36:00,
2013-06-02 00:41:00,55.4,48.0,29.66,NNW,338,0.3,0.4,76,0.00,,,0.00,WUHU216HW,2013-06-02 07:41:00,
2013-06-02 00:46:00,55.8,48.3,29.66,NNW,338,0.0,0.4,76,0.00,,,0.00,WUHU216HW,2013-06-02 07:46:00,
2013-06-02 00:51:00,55.8,48.3,29.67,ENE,68,0.2,0.4,76,0.00,,,0.00,WUHU216HW,2013-06-02 07:51:00,
2013-06-02 00:56:00,56.2,48.6,29.67,ENE,68,0.0,0.4,76,0.00,,,0.00,WUHU216HW,2013-06-02 07:56:00,
2013-06-02 01:01:00,56.3,48.8,29.67,East,90,0.0,0.0,76,0.00,,,0.00,WUHU216HW,2013-06-02 08:01:00,
2013-06-02 01:06:00,56.5,48.6,29.67,East,90,0.0,0.0,75,0.00,,,0.00,WUHU216HW,2013-06-02 08:06:00,
2013-06-02 01:11:00,56.5,48.6,29.67,East,90,0.0,0.0,75,0.00,,,0.00,WUHU216HW,2013-06-02 08:11:00,
2013-06-02 01:16:00,56.7,48.8,29.67,East,90,0.0,0.0,75,0.00,,,0.00,WUHU216HW,2013-06-02 08:16:00,
2013-06-02 01:21:00,56.7,48.8,29.67,East,90,0.0,0.0,75,0.00,,,0.00,WUHU216HW,2013-06-02 08:21:00,
2013-06-02 01:26:00,56.7,48.8,29.67,NW,315,0.2,0.4,75,0.00,,,0.00,WUHU216HW,2013-06-02 08:26:00,
2013-06-02 01:31:00,56.5,48.6,29.66,NW,315,0.0,0.4,75,0.00,,,0.00,WUHU216HW,2013-06-02 08:31:00,
2013-06-02 01:36:00,56.5,48.6,29.67,NW,315,0.0,0.0,75,0.00,,,0.00,WUHU216HW,2013-06-02 08:36:00,
2013-06-02 01:41:00,56.3,48.5,29.67,NW,315,0.0,0.0,75,0.00,,,0.00,WUHU216HW,2013-06-02 08:41:00,
2013-06-02 01:46:00,56.2,48.3,29.67,NW,315,0.0,0.0,75,0.00,,,0.00,WUHU216HW,2013-06-02 08:46:00,
2013-06-02 01:51:00,56.2,48.6,29.67,NW,315,0.0,0.0,76,0.00,,,0.00,WUHU216HW,2013-06-02 08:51:00,
2013-06-02 01:56:00,56.0,48.5,29.67,NW,315,0.2,0.9,76,0.00,,,0.00,WUHU216HW,2013-06-02 08:56:00,
2013-06-02 02:01:00,55.8,48.3,29.67,NW,315,0.0,0.9,76,0.00,,,0.00,WUHU216HW,2013-06-02 09:01:00,
2013-06-02 02:06:00,55.8,48.3,29.67,NW,315,0.0,0.0,76,0.00,,,0.00,WUHU216HW,2013-06-02 09:06:00,
2013-06-02 02:11:00,55.8,48.3,29.67,NW,315,0.0,0.7,76,0.00,,,0.00,WUHU216HW,2013-06-02 09:11:00,
2013-06-02 02:16:00,55.8,48.6,29.67,NW,315,0.0,0.7,77,0.00,,,0.00,WUHU216HW,2013-06-02 09:16:00,
2013-06-02 02:21:00,55.8,48.6,29.67,NW,315,0.0,0.0,77,0.00,,,0.00,WUHU216HW,2013-06-02 09:21:00,
2013-06-02 02:26:00,55.8,48.6,29.67,NW,315,0.0,0.0,77,0.00,,,0.00,WUHU216HW,2013-06-02 09:26:00,
2013-06-02 02:31:00,55.8,48.6,29.67,NW,315,0.0,0.0,77,0.00,,,0.00,WUHU216HW,2013-06-02 09:31:00,
2013-06-02 02:36:00,55.8,48.6,29.67,NW,315,0.0,0.0,77,0.00,,,0.00,WUHU216HW,2013-06-02 09:36:00,
2013-06-02 02:41:00,55.8,48.6,29.67,NW,315,0.0,0.0,77,0.00,,,0.00,WUHU216HW,2013-06-02 09:41:00,
2013-06-02 02:46:00,55.8,49.0,29.67,NW,315,0.0,0.0,78,0.00,,,0.00,WUHU216HW,2013-06-02 09:46:00,
2013-06-02 02:51:00,55.8,49.0,29.67,NW,315,0.0,0.0,78,0.00,,,0.00,WUHU216HW,2013-06-02 09:51:00,
2013-06-02 02:56:00,55.8,49.0,29.67,NW,315,0.0,0.0,78,0.00,,,0.00,WUHU216HW,2013-06-02 09:56:00,
2013-06-02 03:01:00,56.0,49.1,29.67,NW,315,0.0,0.0,78,0.00,,,0.00,WUHU216HW,2013-06-02 10:01:00,
2013-06-02 03:06:00,56.0,49.1,29.67,ENE,68,0.0,0.0,78,0.00,,,0.00,WUHU216HW,2013-06-02 10:06:00,
2013-06-02 03:11:00,56.2,49.3,29.67,ENE,68,0.0,0.0,78,0.00,,,0.00,WUHU216HW,2013-06-02 10:11:00,
2013-06-02 03:16:00,56.2,49.3,29.67,ESE,113,0.0,0.0,78,0.00,,,0.00,WUHU216HW,2013-06-02 10:16:00,
2013-06-02 03:21:00,56.3,49.5,29.67,ESE,113,0.0,0.0,78,0.00,,,0.00,WUHU216HW,2013-06-02 10:21:00,
2013-06-02 03:26:00,56.3,49.5,29.67,ESE,113,0.0,0.0,78,0.00,,,0.00,WUHU216HW,2013-06-02 10:26:00,
2013-06-02 03:31:00,56.3,49.5,29.66,SE,135,0.5,0.7,78,0.00,,,0.00,WUHU216HW,2013-06-02 10:31:00,
2013-06-02 03:36:00,56.3,49.5,29.67,SE,135,0.0,0.7,78,0.00,,,0.00,WUHU216HW,2013-06-02 10:36:00,
2013-06-02 03:41:00,56.5,49.7,29.67,SE,135,0.0,0.4,78,0.00,,,0.00,WUHU216HW,2013-06-02 10:41:00,
2013-06-02 03:46:00,56.5,49.7,29.67,SE,135,0.0,0.0,78,0.00,,,0.00,WUHU216HW,2013-06-02 10:46:00,
2013-06-02 03:51:00,56.5,49.7,29.67,SE,135,0.0,0.0,78,0.00,,,0.00,WUHU216HW,2013-06-02 10:51:00,
2013-06-02 03:56:00,56.5,49.7,29.67,SE,135,0.0,0.0,78,0.00,,,0.00,WUHU216HW,2013-06-02 10:56:00,
2013-06-02 04:01:00,56.5,49.7,29.67,SE,135,0.0,0.0,78,0.00,,,0.00,WUHU216HW,2013-06-02 11:01:00,
2013-06-02 04:06:00,56.5,49.7,29.67,SE,135,0.0,0.4,78,0.00,,,0.00,WUHU216HW,2013-06-02 11:06:00,
2013-06-02 04:11:00,56.5,49.7,29.67,NNW,338,0.4,0.4,78,0.00,,,0.00,WUHU216HW,2013-06-02 11:11:00,
2013-06-02 04:16:00,56.5,50.0,29.67,NNW,338,0.0,0.4,79,0.00,,,0.00,WUHU216HW,2013-06-02 11:16:00,
2013-06-02 04:21:00,56.5,50.0,29.67,NNW,338,0.0,0.4,79,0.00,,,0.00,WUHU216HW,2013-06-02 11:21:00,
2013-06-02 04:26:00,56.5,50.0,29.67,NNW,338,0.0,0.0,79,0.00,,,0.00,WUHU216HW,2013-06-02 11:26:00,
2013-06-02 04:31:00,56.5,50.0,29.67,North,0,0.0,0.2,79,0.00,,,0.00,WUHU216HW,2013-06-02 11:31:00,
2013-06-02 04:36:00,56.5,50.0,29.67,North,0,0.0,0.2,79,0.00,,,0.00,WUHU216HW,2013-06-02 11:36:00,
2013-06-02 04:41:00,56.5,50.0,29.67,SE,135,0.2,0.2,79,0.00,,,0.00,WUHU216HW,2013-06-02 11:41:00,
2013-06-02 04:46:00,56.5,50.0,29.67,SSE,158,0.6,0.9,79,0.00,,,0.00,WUHU216HW,2013-06-02 11:46:00,
2013-06-02 04:51:00,56.5,50.0,29.67,SSW,203,0.0,0.9,79,0.00,,,0.00,WUHU216HW,2013-06-02 11:51:00,
2013-06-02 04:56:00,56.5,50.0,29.67,SSE,158,0.4,0.9,79,0.00,,,0.00,WUHU216HW,2013-06-02 11:56:00,
2013-06-02 05:01:00,56.5,50.0,29.67,ESE,113,1.1,1.1,79,0.00,,,0.00,WUHU216HW,2013-06-02 12:01:00,
2013-06-02 05:06:00,56.5,50.0,29.67,ESE,113,0.3,1.1,79,0.00,,,0.00,WUHU216HW,2013-06-02 12:06:00,
2013-06-02 05:11:00,56.5,50.0,29.67,ESE,113,0.0,1.1,79,0.00,,,0.00,WUHU216HW,2013-06-02 12:11:00,
2013-06-02 05:16:00,56.5,50.0,29.68,NNW,338,0.6,0.9,79,0.00,,,0.00,WUHU216HW,2013-06-02 12:16:00,
2013-06-02 05:21:00,56.5,50.0,29.68,North,0,0.3,0.9,79,0.00,,,0.00,WUHU216HW,2013-06-02 12:21:00,
2013-06-02 05:26:00,56.5,50.0,29.68,NE,45,0.0,0.4,79,0.00,,,0.00,WUHU216HW,2013-06-02 12:26:00,
2013-06-02 05:31:00,56.3,49.9,29.68,NE,45,0.0,0.4,79,0.00,,,0.00,WUHU216HW,2013-06-02 12:31:00,
2013-06-02 05:36:00,56.3,49.9,29.68,NE,45,0.0,0.0,79,0.00,,,0.00,WUHU216HW,2013-06-02 12:36:00,
2013-06-02 05:41:00,56.3,49.9,29.68,East,90,0.0,0.2,79,0.00,,,0.00,WUHU216HW,2013-06-02 12:41:00,
2013-06-02 05:46:00,56.3,49.9,29.68,South,189,0.4,0.9,79,0.00,,,0.00,WUHU216HW,2013-06-02 12:46:00,
2013-06-02 05:51:00,56.3,49.9,29.68,SSW,203,0.4,0.9,79,0.00,,,0.00,WUHU216HW,2013-06-02 12:51:00,
2013-06-02 05:56:00,56.3,49.9,29.68,SSW,203,0.0,0.4,79,0.00,,,0.00,WUHU216HW,2013-06-02 12:56:00,
2013-06-02 06:01:00,56.3,49.9,29.68,SSW,203,0.0,0.4,79,0.00,,,0.00,WUHU216HW,2013-06-02 13:01:00,
2013-06-02 06:06:00,56.5,50.0,29.68,SSW,203,0.0,0.0,79,0.00,,,0.00,WUHU216HW,2013-06-02 13:06:00,
2013-06-02 06:11:00,56.5,50.0,29.69,SSW,203,0.0,0.0,79,0.00,,,0.00,WUHU216HW,2013-06-02 13:11:00,
2013-06-02 06:16:00,56.5,50.0,29.69,ESE,113,0.4,0.7,79,0.00,,,0.00,WUHU216HW,2013-06-02 13:16:00,
2013-06-02 06:21:00,56.5,50.0,29.69,East,91,0.6,1.1,79,0.00,,,0.00,WUHU216HW,2013-06-02 13:21:00,
2013-06-02 06:26:00,56.5,50.0,29.69,East,90,0.0,1.1,79,0.00,,,0.00,WUHU216HW,2013-06-02 13:26:00,
2013-06-02 06:31:00,56.5,50.0,29.69,East,95,0.5,1.1,79,0.00,,,0.00,WUHU216HW,2013-06-02 13:31:00,
2013-06-02 06:36:00,56.5,50.0,29.69,ESE,113,0.3,1.1,79,0.00,,,0.00,WUHU216HW,2013-06-02 13:36:00,
2013-06-02 06:41:00,56.5,50.0,29.70,NE,45,0.3,1.1,79,0.00,,,0.00,WUHU216HW,2013-06-02 13:41:00,
2013-06-02 06:46:00,56.7,50.2,29.70,ESE,119,0.7,1.1,79,0.00,,,0.00,WUHU216HW,2013-06-02 13:46:00,
2013-06-02 06:51:00,56.7,50.2,29.70,SE,135,0.4,1.1,79,0.00,,,0.00,WUHU216HW,2013-06-02 13:51:00,
2013-06-02 06:57:00,56.9,50.0,29.70,SE,135,0.4,0.7,78,0.00,,,0.00,WUHU216HW,2013-06-02 13:57:00,
2013-06-02 07:01:00,56.9,50.0,29.70,SE,133,0.8,1.1,78,0.00,,,0.00,WUHU216HW,2013-06-02 14:01:00,
2013-06-02 07:06:00,56.9,50.0,29.70,NE,45,0.0,1.1,78,0.00,,,0.00,WUHU216HW,2013-06-02 14:06:00,
2013-06-02 07:11:00,56.9,50.0,29.70,NNW,338,1.1,1.1,78,0.00,,,0.00,WUHU216HW,2013-06-02 14:11:00,
2013-06-02 07:16:00,56.9,50.0,29.70,WNW,293,0.7,1.3,78,0.00,,,0.00,WUHU216HW,2013-06-02 14:16:00,
2013-06-02 07:21:00,56.9,50.0,29.70,SSW,203,1.1,1.3,78,0.00,,,0.00,WUHU216HW,2013-06-02 14:21:00,
2013-06-02 07:26:00,57.1,50.2,29.70,WSW,254,0.9,2.5,78,0.00,,,0.00,WUHU216HW,2013-06-02 14:26:00,
2013-06-02 07:31:00,57.2,50.4,29.70,SSW,203,0.2,2.5,78,0.00,,,0.00,WUHU216HW,2013-06-02 14:31:00,
2013-06-02 07:36:00,57.4,50.6,29.70,South,180,0.9,1.1,78,0.00,,,0.00,WUHU216HW,2013-06-02 14:36:00,
2013-06-02 07:41:00,57.6,50.8,29.70,NW,325,0.6,1.1,78,0.00,,,0.00,WUHU216HW,2013-06-02 14:41:00,
2013-06-02 07:46:00,58.0,51.1,29.71,SW,225,0.6,1.1,78,0.00,,,0.00,WUHU216HW,2013-06-02 14:46:00,
2013-06-02 07:51:00,58.3,51.1,29.71,South,182,0.8,1.6,77,0.00,,,0.00,WUHU216HW,2013-06-02 14:51:00,
2013-06-02 07:56:00,58.7,51.5,29.70,North,0,0.4,1.6,77,0.00,,,0.00,WUHU216HW,2013-06-02 14:56:00,
2013-06-02 08:01:00,58.9,51.3,29.70,SE,134,0.8,2.0,76,0.00,,,0.00,WUHU216HW,2013-06-02 15:01:00,
2013-06-02 08:07:00,59.0,51.5,29.70,ENE,66,1.1,2.5,76,0.00,,,0.00,WUHU216HW,2013-06-02 15:07:00,
2013-06-02 08:12:00,59.4,51.5,29.70,SE,135,0.9,2.5,75,0.00,,,0.00,WUHU216HW,2013-06-02 15:12:00,
2013-06-02 08:17:00,59.6,52.0,29.71,NE,45,0.7,1.8,76,0.00,,,0.00,WUHU216HW,2013-06-02 15:17:00,
2013-06-02 08:22:00,60.1,52.2,29.71,South,180,2.5,2.5,75,0.00,,,0.00,WUHU216HW,2013-06-02 15:22:00,
2013-06-02 08:27:00,61.4,53.4,29.70,ENE,68,0.4,2.7,75,0.00,,,0.00,WUHU216HW,2013-06-02 15:27:00,
2013-06-02 08:32:00,62.3,53.5,29.71,SW,225,1.6,2.7,73,0.00,,,0.00,WUHU216HW,2013-06-02 15:32:00,
2013-06-02 08:37:00,62.6,53.5,29.71,SSW,203,1.1,2.2,72,0.00,,,0.00,WUHU216HW,2013-06-02 15:37:00,
2013-06-02 08:42:00,63.0,54.2,29.71,South,189,1.3,2.5,73,0.00,,,0.00,WUHU216HW,2013-06-02 15:42:00,
2013-06-02 08:47:00,64.6,55.5,29.71,North,358,0.8,2.5,72,0.00,,,0.00,WUHU216HW,2013-06-02 15:47:00,
2013-06-02 08:52:00,65.2,54.7,29.71,SSW,203,1.1,1.8,69,0.00,,,0.00,WUHU216HW,2013-06-02 15:52:00,
2013-06-02 08:57:00,66.4,55.9,29.71,WNW,293,2.5,2.5,69,0.00,,,0.00,WUHU216HW,2013-06-02 15:57:00,
2013-06-02 09:02:00,67.7,55.9,29.71,WNW,293,2.5,4.0,66,0.00,,,0.00,WUHU216HW,2013-06-02 16:02:00,
2013-06-02 09:07:00,68.6,56.4,29.71,ENE,61,1.0,4.0,65,0.00,,,0.00,WUHU216HW,2013-06-02 16:07:00,
2013-06-02 09:12:00,67.5,54.5,29.71,North,0,1.8,4.0,63,0.00,,,0.00,WUHU216HW,2013-06-02 16:12:00,
2013-06-02 09:17:00,67.0,54.4,29.71,SW,225,1.8,4.0,64,0.00,,,0.00,WUHU216HW,2013-06-02 16:17:00,
2013-06-02 09:22:00,67.0,54.4,29.71,South,180,1.8,2.7,64,0.00,,,0.00,WUHU216HW,2013-06-02 16:22:00,
2013-06-02 09:27:00,67.3,54.7,29.71,SE,135,1.3,3.4,64,0.00,,,0.00,WUHU216HW,2013-06-02 16:27:00,
2013-06-02 09:32:00,67.9,54.8,29.71,ESE,103,1.7,3.4,63,0.00,,,0.00,WUHU216HW,2013-06-02 16:32:00,
2013-06-02 09:37:00,68.0,54.6,29.71,SE,135,1.3,2.5,62,0.00,,,0.00,WUHU216HW,2013-06-02 16:37:00,
2013-06-02 09:42:00,68.0,54.6,29.71,SW,225,0.9,2.5,62,0.00,,,0.00,WUHU216HW,2013-06-02 16:42:00,
2013-06-02 09:47:00,67.7,54.2,29.70,SE,144,0.6,1.8,62,0.00,,,0.00,WUHU216HW,2013-06-02 16:47:00,
2013-06-02 09:52:00,68.8,55.2,29.70,SE,135,3.4,3.4,62,0.00,,,0.00,WUHU216HW,2013-06-02 16:52:00,
2013-06-02 09:57:00,70.9,55.5,29.70,North,353,3.0,4.5,58,0.00,,,0.00,WUHU216HW,2013-06-02 16:57:00,
2013-06-02 10:02:00,71.1,55.1,29.70,SE,125,2.5,5.1,57,0.00,,,0.00,WUHU216HW,2013-06-02 17:02:00,
2013-06-02 10:07:00,71.3,55.7,29.70,East,90,1.3,5.1,58,0.00,,,0.00,WUHU216HW,2013-06-02 17:07:00,
2013-06-02 10:12:00,71.3,54.7,29.70,NW,316,1.2,3.8,56,0.00,,,0.00,WUHU216HW,2013-06-02 17:12:00,
2013-06-02 10:17:00,70.4,53.9,29.70,NNE,13,0.7,3.8,56,0.00,,,0.00,WUHU216HW,2013-06-02 17:17:00,
2013-06-02 10:22:00,70.2,54.3,29.70,ESE,119,1.1,3.1,57,0.00,,,0.00,WUHU216HW,2013-06-02 17:22:00,
2013-06-02 10:27:00,70.2,53.7,29.70,North,0,3.4,3.4,56,0.00,,,0.00,WUHU216HW,2013-06-02 17:27:00,
2013-06-02 10:32:00,69.5,53.1,29.70,SE,135,2.2,3.4,56,0.00,,,0.00,WUHU216HW,2013-06-02 17:32:00,
2013-06-02 10:37:00,70.0,53.6,29.70,ESE,122,2.1,4.7,56,0.00,,,0.00,WUHU216HW,2013-06-02 17:37:00,
2013-06-02 10:42:00,70.6,54.5,29.69,WNW,282,1.8,4.7,57,0.00,,,0.00,WUHU216HW,2013-06-02 17:42:00,
2013-06-02 10:47:00,71.3,55.3,29.69,ESE,103,3.1,4.3,57,0.00,,,0.00,WUHU216HW,2013-06-02 17:47:00,
2013-06-02 10:52:00,71.5,54.9,29.70,East,87,1.6,4.3,56,0.00,,,0.00,WUHU216HW,2013-06-02 17:52:00,
2013-06-02 10:57:00,71.5,54.4,29.70,North,0,2.7,2.7,55,0.00,,,0.00,WUHU216HW,2013-06-02 17:57:00,
2013-06-02 11:02:00,71.6,54.5,29.70,SSE,158,2.5,3.4,55,0.00,,,0.00,WUHU216HW,2013-06-02 18:02:00,
2013-06-02 11:07:00,72.2,55.0,29.70,SSE,158,1.6,3.4,55,0.00,,,0.00,WUHU216HW,2013-06-02 18:07:00,
2013-06-02 11:12:00,71.6,54.0,29.70,East,90,2.0,3.4,54,0.00,,,0.00,WUHU216HW,2013-06-02 18:12:00,
2013-06-02 11:17:00,72.5,54.4,29.70,ESE,108,3.1,4.5,53,0.00,,,0.00,WUHU216HW,2013-06-02 18:17:00,
2013-06-02 11:22:00,73.3,55.0,29.70,SW,217,2.7,4.5,53,0.00,,,0.00,WUHU216HW,2013-06-02 18:22:00,
2013-06-02 11:27:00,74.0,55.2,29.70,South,180,2.0,4.5,52,0.00,,,0.00,WUHU216HW,2013-06-02 18:27:00,
2013-06-02 11:32:00,74.5,55.7,29.70,SE,135,1.8,4.0,52,0.00,,,0.00,WUHU216HW,2013-06-02 18:32:00,
2013-06-02 11:37:00,74.9,55.1,29.69,West,276,1.5,4.0,50,0.00,,,0.00,WUHU216HW,2013-06-02 18:37:00,
2013-06-02 11:42:00,74.7,54.9,29.70,ESE,105,2.5,4.3,50,0.00,,,0.00,WUHU216HW,2013-06-02 18:42:00,
2013-06-02 11:47:00,74.7,54.3,29.69,SE,135,3.4,4.3,49,0.00,,,0.00,WUHU216HW,2013-06-02 18:47:00,
2013-06-02 11:52:00,74.0,54.2,29.69,SW,225,1.1,3.8,50,0.00,,,0.00,WUHU216HW,2013-06-02 18:52:00,
2013-06-02 11:57:00,73.1,53.3,29.69,West,265,1.9,3.8,50,0.00,,,0.00,WUHU216HW,2013-06-02 18:57:00,
2013-06-02 12:02:00,72.4,53.6,29.69,NNW,338,1.8,3.8,52,0.00,,,0.00,WUHU216HW,2013-06-02 19:02:00,
2013-06-02 12:07:00,72.0,52.8,29.69,NW,323,1.5,2.7,51,0.00,,,0.00,WUHU216HW,2013-06-02 19:07:00,
2013-06-02 12:12:00,72.7,54.0,29.69,SE,133,2.1,4.9,52,0.00,,,0.00,WUHU216HW,2013-06-02 19:12:00,
2013-06-02 12:17:00,73.6,55.4,29.69,East,90,2.2,4.9,53,0.00,,,0.00,WUHU216HW,2013-06-02 19:17:00,
2013-06-02 12:22:00,74.2,54.9,29.69,East,101,1.8,4.0,51,0.00,,,0.00,WUHU216HW,2013-06-02 19:22:00,
2013-06-02 12:27:00,73.4,53.6,29.69,NNW,338,1.6,4.0,50,0.00,,,0.00,WUHU216HW,2013-06-02 19:27:00,
2013-06-02 12:32:00,72.2,52.5,29.69,SW,233,1.3,3.4,50,0.00,,,0.00,WUHU216HW,2013-06-02 19:32:00,
2013-06-02 12:37:00,72.0,52.8,29.68,East,101,2.1,3.4,51,0.00,,,0.00,WUHU216HW,2013-06-02 19:37:00,
2013-06-02 12:42:00,72.0,52.8,29.69,SE,135,4.7,4.7,51,0.00,,,0.00,WUHU216HW,2013-06-02 19:42:00,
2013-06-02 12:47:00,72.2,53.6,29.68,ESE,104,1.6,4.7,52,0.00,,,0.00,WUHU216HW,2013-06-02 19:47:00,
2013-06-02 12:52:00,72.9,54.2,29.68,ESE,113,4.0,4.5,52,0.00,,,0.00,WUHU216HW,2013-06-02 19:52:00,
2013-06-02 12:57:00,73.8,54.6,29.68,SE,138,1.3,4.0,51,0.00,,,0.00,WUHU216HW,2013-06-02 19:57:00,
2013-06-02 13:02:00,73.8,54.0,29.68,ESE,113,1.1,4.0,50,0.00,,,0.00,WUHU216HW,2013-06-02 20:02:00,
2013-06-02 13:07:00,74.2,54.4,29.68,ENE,68,3.8,3.8,50,0.00,,,0.00,WUHU216HW,2013-06-02 20:07:00,
2013-06-02 13:12:00,74.5,54.7,29.68,ENE,68,1.1,3.8,50,0.00,,,0.00,WUHU216HW,2013-06-02 20:12:00,
2013-06-02 13:17:00,73.8,53.4,29.68,WSW,248,2.5,3.8,49,0.00,,,0.00,WUHU216HW,2013-06-02 20:17:00,
2013-06-02 13:22:00,73.4,53.6,29.68,ENE,73,1.7,2.9,50,0.00,,,0.00,WUHU216HW,2013-06-02 20:22:00,
2013-06-02 13:27:00,73.6,53.2,29.68,ESE,116,3.4,4.7,49,0.00,,,0.00,WUHU216HW,2013-06-02 20:27:00,
2013-06-02 13:32:00,73.8,53.4,29.68,ENE,68,3.1,4.7,49,0.00,,,0.00,WUHU216HW,2013-06-02 20:32:00,
2013-06-02 13:37:00,73.8,53.4,29.68,ESE,104,1.4,3.1,49,0.00,,,0.00,WUHU216HW,2013-06-02 20:37:00,
2013-06-02 13:42:00,73.4,52.5,29.68,SE,135,2.5,4.0,48,0.00,,,0.00,WUHU216HW,2013-06-02 20:42:00,
2013-06-02 13:47:00,72.4,50.9,29.68,SSE,158,2.2,4.7,47,0.00,,,0.00,WUHU216HW,2013-06-02 20:47:00,
2013-06-02 13:52:00,72.2,51.9,29.68,ESE,122,2.1,4.7,49,0.00,,,0.00,WUHU216HW,2013-06-02 20:52:00,
2013-06-02 13:57:00,72.5,52.8,29.68,NW,315,2.5,4.5,50,0.00,,,0.00,WUHU216HW,2013-06-02 20:57:00,
2013-06-02 14:02:00,72.4,52.1,29.68,NNE,18,1.9,4.5,49,0.00,,,0.00,WUHU216HW,2013-06-02 21:02:00,
2013-06-02 14:07:00,72.7,52.4,29.68,SE,146,3.0,5.4,49,0.00,,,0.00,WUHU216HW,2013-06-02 21:07:00,
2013-06-02 14:12:00,73.3,53.5,29.68,WSW,248,3.4,5.4,50,0.00,,,0.00,WUHU216HW,2013-06-02 21:12:00,
2013-06-02 14:17:00,73.8,53.4,29.68,WSW,248,2.9,5.4,49,0.00,,,0.00,WUHU216HW,2013-06-02 21:17:00,
2013-06-02 14:22:00,74.2,54.4,29.68,NE,45,2.2,4.5,50,0.00,,,0.00,WUHU216HW,2013-06-02 21:22:00,
2013-06-02 14:27:00,74.0,53.6,29.68,North,0,2.7,2.9,49,0.00,,,0.00,WUHU216HW,2013-06-02 21:27:00,
2013-06-02 14:32:00,73.4,53.0,29.68,NNW,338,2.5,3.8,49,0.00,,,0.00,WUHU216HW,2013-06-02 21:32:00,
2013-06-02 14:37:00,72.7,51.9,29.68,North,350,3.4,6.0,48,0.00,,,0.00,WUHU216HW,2013-06-02 21:37:00,
2013-06-02 14:42:00,72.4,52.7,29.67,East,99,2.3,6.0,50,0.00,,,0.00,WUHU216HW,2013-06-02 21:42:00,
2013-06-02 14:47:00,72.7,53.5,29.67,ENE,68,3.4,5.4,51,0.00,,,0.00,WUHU216HW,2013-06-02 21:47:00,
2013-06-02 14:52:00,73.3,54.0,29.67,SE,134,1.5,5.4,51,0.00,,,0.00,WUHU216HW,2013-06-02 21:52:00,
2013-06-02 14:57:00,73.8,54.0,29.67,SSW,207,1.4,3.4,50,0.00,,,0.00,WUHU216HW,2013-06-02 21:57:00,
2013-06-02 15:02:00,73.4,53.0,29.67,NE,45,1.6,4.3,49,0.00,,,0.00,WUHU216HW,2013-06-02 22:02:00,
2013-06-02 15:07:00,73.3,52.9,29.67,ESE,106,2.6,4.7,49,0.00,,,0.00,WUHU216HW,2013-06-02 22:07:00,
2013-06-02 15:12:00,73.1,52.8,29.67,NE,38,2.9,4.7,49,0.00,,,0.00,WUHU216HW,2013-06-02 22:12:00,
2013-06-02 15:17:00,73.3,52.9,29.67,East,100,2.6,4.7,49,0.00,,,0.00,WUHU216HW,2013-06-02 22:17:00,
2013-06-02 15:22:00,73.4,53.0,29.67,SE,129,1.3,4.7,49,0.00,,,0.00,WUHU216HW,2013-06-02 22:22:00,
2013-06-02 15:27:00,73.1,52.1,29.67,North,0,3.1,6.5,48,0.00,,,0.00,WUHU216HW,2013-06-02 22:27:00,
2013-06-02 15:32:00,73.1,52.8,29.67,NNW,327,1.3,6.5,49,0.00,,,0.00,WUHU216HW,2013-06-02 22:32:00,
2013-06-02 15:37:00,73.3,52.3,29.67,WNW,293,2.7,4.0,48,0.00,,,0.00,WUHU216HW,2013-06-02 22:37:00,
2013-06-02 15:42:00,73.3,52.9,29.66,West,272,2.8,5.8,49,0.00,,,0.00,WUHU216HW,2013-06-02 22:42:00,
2013-06-02 15:47:00,73.4,53.0,29.67,SE,135,2.5,5.8,49,0.00,,,0.00,WUHU216HW,2013-06-02 22:47:00,
2013-06-02 15:52:00,73.6,53.8,29.67,South,180,2.0,4.3,50,0.00,,,0.00,WUHU216HW,2013-06-02 22:52:00,
2013-06-02 15:57:00,74.0,54.2,29.67,ENE,68,4.5,4.5,50,0.00,,,0.00,WUHU216HW,2013-06-02 22:57:00,
2013-06-02 16:02:00,73.8,53.4,29.67,ESE,113,2.5,4.5,49,0.00,,,0.00,WUHU216HW,2013-06-02 23:02:00,
2013-06-02 16:07:00,73.4,53.0,29.67,West,263,2.5,4.7,49,0.00,,,0.00,WUHU216HW,2013-06-02 23:07:00,
2013-06-02 16:12:00,73.6,53.8,29.67,NE,45,1.3,4.7,50,0.00,,,0.00,WUHU216HW,2013-06-02 23:12:00,
2013-06-02 16:17:00,73.8,54.0,29.67,WNW,293,1.8,3.4,50,0.00,,,0.00,WUHU216HW,2013-06-02 23:17:00,
2013-06-02 16:22:00,74.2,53.7,29.67,WNW,293,2.2,4.7,49,0.00,,,0.00,WUHU216HW,2013-06-02 23:22:00,
2013-06-02 16:27:00,74.0,53.6,29.67,North,8,1.7,4.7,49,0.00,,,0.00,WUHU216HW,2013-06-02 23:27:00,
2013-06-02 16:32:00,73.4,53.0,29.67,ESE,109,3.1,4.0,49,0.00,,,0.00,WUHU216HW,2013-06-02 23:32:00,
2013-06-02 16:37:00,73.8,53.4,29.66,NNE,15,1.7,4.0,49,0.00,,,0.00,WUHU216HW,2013-06-02 23:37:00,
2013-06-02 16:42:00,73.6,53.2,29.67,NE,45,1.8,3.6,49,0.00,,,0.00,WUHU216HW,2013-06-02 23:42:00,
2013-06-02 16:47:00,73.3,53.5,29.67,NNW,338,1.8,3.6,50,0.00,,,0.00,WUHU216HW,2013-06-02 23:47:00,
2013-06-02 16:52:00,73.1,53.3,29.66,NW,315,2.0,3.6,50,0.00,,,0.00,WUHU216HW,2013-06-02 23:52:00,
2013-06-02 16:57:00,73.4,53.6,29.66,South,172,2.8,4.9,50,0.00,,,0.00,WUHU216HW,2013-06-02 23:57:00,
2013-06-02 17:02:00,73.4,53.6,29.66,SE,136,1.7,4.9,50,0.00,,,0.00,WUHU216HW,2013-06-03 00:02:00,
2013-06-02 17:07:00,73.6,53.8,29.66,SSE,153,1.6,3.8,50,0.00,,,0.00,WUHU216HW,2013-06-03 00:07:00,
2013-06-02 17:12:00,73.3,53.5,29.66,East,90,1.8,2.7,50,0.00,,,0.00,WUHU216HW,2013-06-03 00:12:00,
2013-06-02 17:17:00,73.4,54.2,29.66,NNW,338,1.3,2.5,51,0.00,,,0.00,WUHU216HW,2013-06-03 00:17:00,
2013-06-02 17:22:00,73.8,54.6,29.65,ESE,113,0.9,2.5,51,0.00,,,0.00,WUHU216HW,2013-06-03 00:22:00,
2013-06-02 17:27:00,73.8,54.6,29.65,NNE,16,2.0,5.4,51,0.00,,,0.00,WUHU216HW,2013-06-03 00:27:00,
2013-06-02 17:32:00,73.8,54.0,29.65,South,190,1.4,5.4,50,0.00,,,0.00,WUHU216HW,2013-06-03 00:32:00,
2013-06-02 17:37:00,73.4,53.0,29.65,ENE,68,2.0,3.4,49,0.00,,,0.00,WUHU216HW,2013-06-03 00:37:00,
2013-06-02 17:42:00,73.4,53.6,29.65,SSE,158,1.6,3.4,50,0.00,,,0.00,WUHU216HW,2013-06-03 00:42:00,
2013-06-02 17:47:00,73.4,53.6,29.65,SE,135,2.5,2.9,50,0.00,,,0.00,WUHU216HW,2013-06-03 00:47:00,
2013-06-02 17:52:00,73.3,54.0,29.65,NE,35,1.3,2.9,51,0.00,,,0.00,WUHU216HW,2013-06-03 00:52:00,
2013-06-02 17:57:00,73.3,53.5,29.65,SW,225,3.1,3.1,50,0.00,,,0.00,WUHU216HW,2013-06-03 00:57:00,
2013-06-02 18:02:00,73.3,54.0,29.65,NNE,23,1.8,3.6,51,0.00,,,0.00,WUHU216HW,2013-06-03 01:02:00,
2013-06-02 18:07:00,73.1,53.8,29.65,NNW,338,2.7,3.6,51,0.00,,,0.00,WUHU216HW,2013-06-03 01:07:00,
2013-06-02 18:12:00,72.7,53.5,29.65,ESE,102,1.9,3.4,51,0.00,,,0.00,WUHU216HW,2013-06-03 01:12:00,
2013-06-02 18:17:00,72.5,53.4,29.65,NNW,338,3.6,3.6,51,0.00,,,0.00,WUHU216HW,2013-06-03 01:17:00,
2013-06-02 18:22:00,72.4,53.2,29.65,ENE,68,2.2,3.6,51,0.00,,,0.00,WUHU216HW,2013-06-03 01:22:00,
2013-06-02 18:27:00,72.2,53.6,29.65,ESE,111,1.5,3.6,52,0.00,,,0.00,WUHU216HW,2013-06-03 01:27:00,
2013-06-02 18:32:00,72.2,53.0,29.65,East,94,1.2,3.4,51,0.00,,,0.00,WUHU216HW,2013-06-03 01:32:00,
2013-06-02 18:37:00,72.0,53.4,29.65,ESE,104,1.6,3.4,52,0.00,,,0.00,WUHU216HW,2013-06-03 01:37:00,
2013-06-02 18:42:00,71.8,53.2,29.65,East,82,1.3,2.5,52,0.00,,,0.00,WUHU216HW,2013-06-03 01:42:00,
2013-06-02 18:47:00,71.8,53.2,29.65,South,180,4.3,4.3,52,0.00,,,0.00,WUHU216HW,2013-06-03 01:47:00,
2013-06-02 18:52:00,71.6,53.6,29.65,WSW,237,0.6,4.3,53,0.00,,,0.00,WUHU216HW,2013-06-03 01:52:00,
2013-06-02 18:57:00,71.3,53.2,29.65,SE,135,1.8,4.3,53,0.00,,,0.00,WUHU216HW,2013-06-03 01:57:00,
2013-06-02 19:02:00,71.1,53.0,29.65,SE,135,1.8,2.0,53,0.00,,,0.00,WUHU216HW,2013-06-03 02:02:00,
2013-06-02 19:07:00,70.6,53.1,29.65,SE,135,1.6,4.7,54,0.00,,,0.00,WUHU216HW,2013-06-03 02:07:00,
2013-06-02 19:12:00,70.0,52.1,29.65,WSW,258,2.2,6.0,53,0.00,,,0.00,WUHU216HW,2013-06-03 02:12:00,
2013-06-02 19:17:00,69.5,52.1,29.65,South,180,1.3,6.0,54,0.00,,,0.00,WUHU216HW,2013-06-03 02:17:00,
2013-06-02 19:22:00,69.1,51.8,29.65,WNW,296,1.8,4.3,54,0.00,,,0.00,WUHU216HW,2013-06-03 02:22:00,
2013-06-02 19:27:00,68.8,51.9,29.66,ESE,114,0.6,4.3,55,0.00,,,0.00,WUHU216HW,2013-06-03 02:27:00,
2013-06-02 19:32:00,68.4,51.6,29.66,SE,135,0.4,2.0,55,0.00,,,0.00,WUHU216HW,2013-06-03 02:32:00,
2013-06-02 19:37:00,68.2,51.4,29.65,SE,135,1.1,1.8,55,0.00,,,0.00,WUHU216HW,2013-06-03 02:37:00,
2013-06-02 19:42:00,68.0,51.7,29.65,SE,135,0.6,1.3,56,0.00,,,0.00,WUHU216HW,2013-06-03 02:42:00,
2013-06-02 19:47:00,67.9,52.0,29.66,SE,135,0.3,0.7,57,0.00,,,0.00,WUHU216HW,2013-06-03 02:47:00,
2013-06-02 19:52:00,67.5,51.7,29.66,ESE,113,0.2,0.9,57,0.00,,,0.00,WUHU216HW,2013-06-03 02:52:00,
2013-06-02 19:57:00,67.3,51.6,29.66,NW,318,1.0,2.2,57,0.00,,,0.00,WUHU216HW,2013-06-03 02:57:00,
2013-06-02 20:02:00,67.1,51.4,29.66,SE,135,1.8,2.2,57,0.00,,,0.00,WUHU216HW,2013-06-03 03:02:00,
2013-06-02 20:07:00,66.8,51.6,29.66,SSE,154,0.4,1.8,58,0.00,,,0.00,WUHU216HW,2013-06-03 03:07:00,
2013-06-02 20:12:00,66.4,51.7,29.66,SSE,168,0.6,2.2,59,0.00,,,0.00,WUHU216HW,2013-06-03 03:12:00,
2013-06-02 20:17:00,66.1,51.8,29.66,NNE,23,0.0,3.4,60,0.00,,,0.00,WUHU216HW,2013-06-03 03:17:00,
2013-06-02 20:22:00,65.9,51.7,29.66,South,180,0.9,3.4,60,0.00,,,0.00,WUHU216HW,2013-06-03 03:22:00,
2013-06-02 20:27:00,65.5,51.8,29.66,South,180,0.2,0.9,61,0.00,,,0.00,WUHU216HW,2013-06-03 03:27:00,
2013-06-02 20:32:00,65.3,51.6,29.67,ENE,68,0.4,0.9,61,0.00,,,0.00,WUHU216HW,2013-06-03 03:32:00,
2013-06-02 20:37:00,65.0,51.6,29.67,ENE,68,0.0,0.9,62,0.00,,,0.00,WUHU216HW,2013-06-03 03:37:00,
2013-06-02 20:42:00,64.8,51.5,29.67,ENE,68,0.0,0.4,62,0.00,,,0.00,WUHU216HW,2013-06-03 03:42:00,
2013-06-02 20:47:00,64.4,51.1,29.67,ENE,68,0.0,0.0,62,0.00,,,0.00,WUHU216HW,2013-06-03 03:47:00,
2013-06-02 20:52:00,64.1,51.2,29.67,ENE,68,0.0,0.0,63,0.00,,,0.00,WUHU216HW,2013-06-03 03:52:00,
2013-06-02 20:57:00,63.7,50.9,29.68,ENE,68,0.0,0.0,63,0.00,,,0.00,WUHU216HW,2013-06-03 03:57:00,
2013-06-02 21:01:00,63.4,51.0,29.68,East,90,0.2,0.4,64,0.00,,,0.00,WUHU216HW,2013-06-03 04:01:00,
2013-06-02 21:02:00,63.4,51.0,29.67,East,90,0.0,0.4,64,0.00,,,0.00,WUHU216HW,2013-06-03 04:02:00,
2013-06-02 21:07:00,63.0,51.0,29.68,East,90,0.0,0.4,65,0.00,,,0.00,WUHU216HW,2013-06-03 04:07:00,
2013-06-02 21:12:00,62.6,50.7,29.68,East,90,0.0,0.0,65,0.00,,,0.00,WUHU216HW,2013-06-03 04:12:00,
2013-06-02 21:17:00,62.3,50.8,29.68,East,90,0.0,0.0,66,0.00,,,0.00,WUHU216HW,2013-06-03 04:17:00,
2013-06-02 21:22:00,61.9,50.4,29.68,East,90,0.0,0.0,66,0.00,,,0.00,WUHU216HW,2013-06-03 04:22:00,
2013-06-02 21:27:00,61.6,50.5,29.68,SSE,158,0.2,0.2,67,0.00,,,0.00,WUHU216HW,2013-06-03 04:27:00,
2013-06-02 21:32:00,61.4,50.4,29.68,SSE,158,0.0,0.4,67,0.00,,,0.00,WUHU216HW,2013-06-03 04:32:00,
2013-06-02 21:37:00,61.2,50.6,29.69,SSE,158,0.0,0.4,68,0.00,,,0.00,WUHU216HW,2013-06-03 04:37:00,
2013-06-02 21:42:00,61.0,50.0,29.69,SSE,158,0.0,0.0,67,0.00,,,0.00,WUHU216HW,2013-06-03 04:42:00,
2013-06-02 21:47:00,60.8,49.9,29.69,SSE,158,0.0,0.0,67,0.00,,,0.00,WUHU216HW,2013-06-03 04:47:00,
2013-06-02 21:52:00,60.7,50.1,29.69,SSE,158,0.0,0.0,68,0.00,,,0.00,WUHU216HW,2013-06-03 04:52:00,
2013-06-02 21:57:00,60.3,49.8,29.69,SSE,158,0.0,0.0,68,0.00,,,0.00,WUHU216HW,2013-06-03 04:57:00,
2013-06-02 22:02:00,60.1,49.6,29.69,North,0,0.0,0.0,68,0.00,,,0.00,WUHU216HW,2013-06-03 05:02:00,
2013-06-02 22:07:00,59.8,49.6,29.69,SE,135,0.2,0.4,69,0.00,,,0.00,WUHU216HW,2013-06-03 05:07:00,
2013-06-02 22:12:00,59.6,49.4,29.69,SE,135,0.4,1.3,69,0.00,,,0.00,WUHU216HW,2013-06-03 05:12:00,
2013-06-02 22:17:00,59.4,49.2,29.69,ENE,71,0.3,1.3,69,0.00,,,0.00,WUHU216HW,2013-06-03 05:17:00,
2013-06-02 22:22:00,59.4,49.7,29.70,East,90,0.4,0.4,70,0.00,,,0.00,WUHU216HW,2013-06-03 05:22:00,
2013-06-02 22:27:00,59.0,49.3,29.70,ESE,113,0.4,1.3,70,0.00,,,0.00,WUHU216HW,2013-06-03 05:27:00,
2013-06-02 22:32:00,58.9,49.1,29.70,East,100,0.5,1.3,70,0.00,,,0.00,WUHU216HW,2013-06-03 05:32:00,
2013-06-02 22:37:00,58.7,49.3,29.70,ESE,113,0.9,1.1,71,0.00,,,0.00,WUHU216HW,2013-06-03 05:37:00,
2013-06-02 22:42:00,58.5,49.1,29.70,SSE,158,1.8,1.8,71,0.00,,,0.00,WUHU216HW,2013-06-03 05:42:00,
2013-06-02 22:47:00,58.3,49.3,29.70,ESE,113,0.7,1.8,72,0.00,,,0.00,WUHU216HW,2013-06-03 05:47:00,
2013-06-02 22:52:00,58.1,49.1,29.70,ESE,113,1.1,1.8,72,0.00,,,0.00,WUHU216HW,2013-06-03 05:52:00,
2013-06-02 22:57:00,58.0,49.0,29.70,ESE,113,0.7,1.1,72,0.00,,,0.00,WUHU216HW,2013-06-03 05:57:00,
2013-06-02 23:02:00,58.0,49.0,29.70,ESE,117,0.5,1.1,72,0.00,,,0.00,WUHU216HW,2013-06-03 06:02:00,
2013-06-02 23:07:00,57.8,49.1,29.70,ESE,113,0.4,1.1,73,0.00,,,0.00,WUHU216HW,2013-06-03 06:07:00,
2013-06-02 23:12:00,57.4,48.8,29.70,East,90,0.3,1.1,73,0.00,,,0.00,WUHU216HW,2013-06-03 06:12:00,
2013-06-02 23:17:00,57.2,48.6,29.70,East,90,0.2,0.7,73,0.00,,,0.00,WUHU216HW,2013-06-03 06:17:00,
2013-06-02 23:22:00,57.2,48.6,29.70,ESE,113,0.5,0.7,73,0.00,,,0.00,WUHU216HW,2013-06-03 06:22:00,
2013-06-02 23:27:00,57.1,48.4,29.70,ESE,113,0.2,0.7,73,0.00,,,0.00,WUHU216HW,2013-06-03 06:27:00,
2013-06-02 23:32:00,56.9,48.2,29.70,East,90,0.4,1.3,73,0.00,,,0.00,WUHU216HW,2013-06-03 06:32:00,
2013-06-02 23:37:00,56.7,48.4,29.70,ESE,113,0.0,1.3,74,0.00,,,0.00,WUHU216HW,2013-06-03 06:37:00,
2013-06-02 23:42:00,56.5,48.2,29.70,ESE,113,0.0,0.7,74,0.00,,,0.00,WUHU216HW,2013-06-03 06:42:00,
2013-06-02 23:47:00,56.3,48.2,29.70,ESE,113,0.0,0.0,74,0.00,,,0.00,WUHU216HW,2013-06-03 06:47:00,
2013-06-02 23:52:00,56.2,48.0,29.70,ESE,113,0.0,0.0,74,0.00,,,0.00,WUHU216HW,2013-06-03 06:52:00,
2013-06-02 23:57:00,56.0,47.8,29.70,ESE,113,0.0,0.0,74,0.00,,,0.00,WUHU216HW,2013-06-03 06:57:00,